Regional Weather Roundup
Issued by NWS Green Bay, WI

Home | Current Version | Previous Version | Graphics & Text | Print | Product List | Glossary Off
Versions: 1 2 3 4 5 6 7 8 9 10 11 12 13 14 15 16 17 18 19 20 21 22 23 24 25 26 27 28 29 30 31 32 33 34 35 36 37 38 39 40 41 42 43 44 45 46 47 48 49 50

000
ASUS43 KGRB 212110
RWRGRB

NORTH-CENTRAL AND NORTHEAST WISCONSIN REGIONAL WEATHER ROUNDUP
NATIONAL WEATHER SERVICE GREEN BAY WI
300 PM CST SUN DEC 21 2014

WIZ005-009-010>012-018-019-212200-
NORTH CENTRAL WISCONSIN

CITY           SKY/WX    TMP DP  RH WIND       PRES   REMARKS
IRONWOOD       CLOUDY    34  30  86 S12       29.81S
MANITOWISH WTR LGT SNOW  31  31 100 S13       29.84S
ARBOR VITAE    LGT SNOW  33  31  93 S10G17    29.86S VSB 1
EAGLE RIVER    LGT SNOW  31  31 100 S6        29.88S VSB 1
LAND O LAKES   LGT SNOW  32  31  94 S7        29.88F
RHINELANDER    LGT SNOW  31  30  96 S8        29.88F FOG
PHILLIPS       LGT SNOW  32  31  94 S10       29.83F
ANTIGO         LGT SNOW  31  31 100 S13       29.92F
TOMAHAWK       LGT SNOW  32  30  94 CALM      29.88F VSB 1
MERRILL        LGT SNOW  32  32 100 S7        29.89F VSB 3/4
$$

WIZ013-073-212200-
NORTHEAST WISCONSIN

CITY           SKY/WX    TMP DP  RH WIND       PRES   REMARKS
IRON MOUNTAIN  LGT SNOW  31  29  92 SE9       29.95F FOG
MARINETTE      CLOUDY    36  30  80 S9        30.01S
OCONTO         CLOUDY    35  33  93 S5        30.01S
$$

WIZ017-030-035>037-045-212200-
CENTRAL WISCONSIN

CITY           SKY/WX    TMP DP  RH WIND       PRES   REMARKS
MEDFORD        LGT SNOW  32  32  99 SE10G16   29.85F
WAUSAU         LGT SNOW  34  32  92 S13       29.90S FOG
MOSINEE        CLOUDY    34  34 100 S10G17    29.92S FOG
MARSHFIELD     LGT SNOW  34  32  92 S17       29.89S VSB 3/4
WISC RAPIDS    CLOUDY    35  31  85 S7        29.94S FOG
STEVENS POINT  CLOUDY    32  31  96 S10       29.94S FOG
WAUPACA        CLOUDY    37  32  83 SE9G16    29.98S HAZE
SHAWANO        CLOUDY    36  32  85 S6        29.99S FOG
CLINTONVILLE   CLOUDY    34  32  93 S10       29.98F FOG
$$

WIZ038-039-048-051-212200-
FOX VALLEY

CITY           SKY/WX    TMP DP  RH WIND       PRES   REMARKS
NWS GREEN BAY  CLOUDY    35  32  88 S9        30.01F FOG
APPLETON       CLOUDY    34  34 100 S12       30.00F FOG
OSHKOSH        CLOUDY    35  31  85 S8        30.00F FOG
FOND DU LAC    CLOUDY    35  30  82 S10       30.01S
$$

WIZ022-050-052-212200-
EAST CENTRAL WISCONSIN

CITY           SKY/WX    TMP DP  RH WIND       PRES   REMARKS
STURGEON BAY   CLOUDY    36  32  87 S12       30.04S
MANITOWOC      CLOUDY    37  34  89 S17G23    30.05R
SHEBOYGAN      CLOUDY    35  31  85 S10       30.04S
$$

LMZ563-521-522-541>543-212200-
LAKESHORE

STATION/POSITION TIME  TEMP    WIND        PRES    VSBY  WAVE
                       AIR SEA DIR/SP/G                  HT/PER
                 (UTC) (F)     (DEG/KT/KT) (MB)    (MI)  (FT/S)
SHEBOYGAN LKSHOR 2100   36 35  180/ 20/ 23 1018.3R
KEWAUNEE LKSHORE 2100   37     180/ 16/ 18 1016.5R
ALGOMA MARINA    2100          230/ 18/ 21   N/A
NORTHPORT PIER   2100   37     150/  9/ 18 1017.3S
SISTER BAY LKSHO 2100          160/ 17/ 23   N/A
CHAMBERS ISLAND  2100   37     140/  6/ 14 1016.6S
MENOMINEE LKSHOR 2100   35     170/  9/ 12 1017.0F
$$


USA.gov is the U.S. government's official web portal to all federal, state and local government web resources and services.